User: anonymous   Login
Location: Caltech
(34.1382°N, 118.1253°W)
Time: 17:58:18
(UTC-07:00)
Language:

RESURS DK-1 - Orbit

View from above orbital plane
View from above orbital plane
View from above satellite
View from above satellite

Ground track
Ground track

The orbit data is extracted from the following two-line orbital elements,

1 29228U 06021A   17232.69915555  .00000138  00000-0  17908-4 0  9993
2 29228  69.9355 293.9445 0007591 254.0671 105.9654 15.02184922617788
Epoch (UTC): 20 August 2017 16:46:47
Eccentricity: 0.0007591
inclination: 69.9355°
perigee height: 555 km
apogee height: 565 km
right ascension of ascending node: 293.9445°
argument of perigee: 254.0671°
revolutions per day: 15.02184922
mean anomaly at epoch: 105.9654°
orbit number at epoch: 61778

The dashed part of the orbit path shows where the satellite is in the earth's shadow,  

DLR